Weather Roundup
Issued by NWS

Home | Current Version | Previous Version | Text Only | Print | Product List | Glossary On
Versions: 1 2 3 4 5 6 7 8 9 10 11 12 13 14 15 16 17 18 19 20 21 22 23 24 25 26 27 28 29 30 31 32 33 34 35 36 37 38 39 40 41 42 43 44 45 46 47 48 49 50
000
NZUS93 KARX 261059
HRRWXR

CURRENT HOURLY OBSERVATIONS ACROSS
MUCH OF THE UPPER MISSISSIPPI VALLEY
NATIONAL WEATHER SERVICE LA CROSSE WI
600 AM CDT SUN MAR 26 2017


...SOUTHEAST MINNESOTA...


CITY           SKY/WX    TMP DP  RH WIND       PRES   REMARKS
ROCHESTER      FOG       34  34 100 NE10      29.89F VSB 3/4 WCI  26
ROCHESTER/MAYO CLOUDY    35  35 100 NE3       29.90S
WINONA         CLOUDY    36  34  93 CALM      29.93S FOG
AUSTIN         CLOUDY    36  34  93 NE6       29.88F FOG     WCI  31
ALBERT LEA     DRZL/FOG  36  36 100 NE7       29.88F VSB 1/2 WCI  30
DODGE CENTER   SNOW      34  34 100 NE6       29.90R VSB 1/2 WCI  29
PRESTON        LGT RAIN  34  33  97 NE6       29.89S WCI  29
OWATONNA       FOG       36  34  93 NE7       29.90F VSB 1   WCI  30
FARIBAULT      CLOUDY    36  34  93 NE5       29.92S FOG     WCI  32
$$

...ELSEWHERE IN MINNESOTA...


CITY           SKY/WX    TMP DP  RH WIND       PRES   REMARKS
MINNEAPOLIS    CLOUDY    36  33  89 NE6       29.94S WCI  31
INTNL FALLS    CLOUDY    31  28  89 SE6       30.01F WCI  25
DULUTH         FRZ DRZL  31  31 100 E9        29.98F WCI  23
RED WING       CLOUDY    36  34  93 E6        29.93S FOG     WCI  31
REDWOOD FALLS  LGT RAIN  37  35  92 N3        29.93S FOG
MANKATO        CLOUDY    36  34  92 E6        29.92  WCI  31
WORTHINGTON    FOG       35  35 100 NE7       29.90S VSB 1/2 WCI  29
FAIRMONT       CLOUDY    36  35  96 N6        29.91R FOG     WCI  31
$$

...SOUTHWEST WISCONSIN...


CITY           SKY/WX    TMP DP  RH WIND       PRES   REMARKS
LA CROSSE      CLOUDY    38  36  92 N5        29.91F FOG     WCI  34
PRAIRIE DU CHI RAIN      39  38  97 CALM      29.87F
BOSCOBEL       CLOUDY    40  38  93 VRB5      29.88S
LONE ROCK      NOT AVBL
PLATTEVILLE    CLOUDY    41  41 100 NE10      29.84F VSB 1/2
FORT MC COY    CLOUDY    35  35  99 E8        29.92F WCI  29
CAMP DOUGLAS   LGT RAIN  36  36 100 E5        29.91F FOG     WCI  32
MAUSTON-NEW LI DRIZZLE   36  36  99 E3        29.91S
VIROQUA        CLOUDY    36  36 100 E9        29.87F WCI  29
WIS DELLS      LGT RAIN  36  36  99 NE8       29.90F WCI  30
$$

...ELSEWHERE IN WISCONSIN...


CITY           SKY/WX    TMP DP  RH WIND       PRES   REMARKS
MILWAUKEE      FOG       39  37  92 NE10      29.91F VSB 1/2 WCI  32
MADISON        FOG       40  40 100 NE7       29.88F VSB 3/4
GREEN BAY      CLOUDY    35  35 100 NE13      29.97F FOG     WCI  26
EAU CLAIRE     NOT AVBL
BLACK RVR FLS  DRIZZLE   35  35 100 NE7       29.93S WCI  29
MEDFORD        MIX PCPN  32  31  96 E9        29.93F WCI  24
WAUSAU         MIX PCPN  32  32 100 E7        29.94F FOG     WCI  26
WIS RAPIDS     CLOUDY    34  34 100 E9        29.94F FOG     WCI  27
MARSHFIELD     LGT RAIN  33  31  92 E10       29.92F FOG     WCI  25
RICE LAKE      DRIZZLE   34  34  99 CALM      29.97F
$$

...NORTHEAST IOWA...


CITY           SKY/WX    TMP DP  RH WIND       PRES   REMARKS
WATERLOO       FOG       39  38  96 NE9       29.84F VSB 1   WCI  33
DUBUQUE        FOG       41  41 100 NE10      29.82F VSB 1/4
DECORAH        FOG       36  36 100 NE6       29.86F VSB 1/2 WCI  31
MASON CITY     CLOUDY    36  36 100 N8        29.88S FOG     WCI  30
CHARLES CITY   CLOUDY    37  37 100 NE12      29.86F WCI  30
OELWEIN        CLOUDY    39  39 100 NE12      29.84S FOG     WCI  32
$$

...ELSEWHERE IN IOWA...


CITY           SKY/WX    TMP DP  RH WIND       PRES   REMARKS
DES MOINES     CLOUDY    42  41  96 NW7       29.85R
IOWA CITY      CLOUDY    46  44  93 NE7       29.81S
FORT DODGE     CLOUDY    37  34  87 NE5       29.88S WCI  34
MARSHALLTOWN   CLOUDY    39  39 100 NE10      29.83S FOG     WCI  32
CEDAR RAPIDS   CLOUDY    42  42 100 NE9       29.80S FOG
$$

...NORTHERN ILLINOIS...


CITY           SKY/WX    TMP DP  RH WIND       PRES   REMARKS
CHICAGO-OHARE  CLOUDY    48  45  89 NE6       29.85F FOG
CHICAGO-MIDWAY LGT RAIN  50  49  96 E9        29.86F FOG
MOLINE         FOG       49  48  97 E5        29.79S VSB 1/4
ROCKFORD       FOG       47  45  93 E6        29.86S VSB 3/4
PEORIA         CLOUDY    53  52  96 S7        29.82S
$$

NOTE: "FAIR" INDICATES FEW OR NO CLOUDS BELOW 12,000 FEET WITH NO
SIGNIFICANT WEATHER AND/OR OBSTRUCTIONS TO VISIBILITY. WIND
SPEEDS ARE IN MILES-PER-HOUR.




USA.gov is the U.S. government's official web portal to all federal, state and local government web resources and services.